STARLINK-1487 (45758 NORAD) Tracking and Keplerian Element Data

This shows tracking and keplerian element data for the satellite.

Feedback or suggestion? Click here.




ElementValue
Catalog45758
NameSTARLINK-1487
Epoch Orbit462
Epoch Day186.50001157
Epoch Year2020
RAAN192.6256
Inclination53.0004
Eccentricity9.87E-05
Argument of Perigee76.2371
Mean Anonmoly170.1136
Mean Motion15.62777268
Decay Rate-0.00058276
L11 45758U 20038AE 20186.50001157 -.00058276 00000-0 -63457-3 0 9996
L22 45758 53.0004 192.6256 0000987 76.2371 170.1136 15.62777268 4626

Live tracking and technical data element details for STARLINK-1487 (NORAD 45758). STARLINK-1487 can be tracked NOW for your location showing map with azimuth and elevation plus other details from your city location.

Track the satellite on the map from your city or location and see movement details for azimuth, elevation, latitude, longitude, range, height, and movement on the map or in text.







IsCatalogInMostPopularTable: catalog: 45758, numindb: 4
Update: records affected: 1



GetName: 45758 STARLINK-1487

Hit Count: updated at: Sun, 05 Jul 2020 17:14:37 GMT